708  
ASUS41 KRLX 192210  
RWRRLX  
REGIONAL WEATHER ROUNDUP  
NATIONAL WEATHER SERVICE CHARLESTON WV  
600 PM EDT SUN MAY 19 2019  
 
NOTE: "FAIR" INDICATES FEW OR NO CLOUDS BELOW 12,000 FEET WITH NO  
SIGNIFICANT WEATHER AND/OR S TO VISIBILITY
.  
 
WVZ003-192300-  
NORTHERN PANHANDLE OF WEST VIRGINIA  
 
CITY SKY/WX TMP DP RH WIND PRES REMARKS
 
WHEELING FAIR 83 58 42 SW18G28 29.83S  

 
 
WVZ009-192300-  
NORTHWEST WEST VIRGINIA  
 
CITY SKY/WX TMP DP RH WIND PRES REMARKS
 
PARKERSBURG PTSUNNY N/A N/A N/A W12G17 29.87S  

 
 
WVZ006-192300-  
WESTERN WEST VIRGINIA  
 
CITY SKY/WX TMP DP RH WIND PRES REMARKS
 
HUNTINGTON FAIR 85 58 39 SW13 29.85F  

 
 
WVZ015-192300-  
WEST CENTRAL WEST VIRGINIA  
 
CITY SKY/WX TMP DP RH WIND PRES REMARKS
 
CHARLESTON FAIR 87 58 37 W15G23 29.86F  

 
 
WVZ022-031-192300-  
NORTH CENTRAL WEST VIRGINIA  
 
CITY SKY/WX TMP DP RH WIND PRES REMARKS
 
MORGANTOWN FAIR 76 61 59 S8 29.88R  
CLARKSBURG FAIR 79 64 60 S10 29.87S  
BUCKHANNON FAIR 81 66 61 S12 29.90F  

 
 
WVZ025-035-042-045-192300-  
SOUTHERN WEST VIRGINIA  
 
CITY SKY/WX TMP DP RH WIND PRES REMARKS
 
BECKLEY FAIR 72 65 78 S5 29.98F  
LOGAN PTSUNNY 82 61 47 SW10 29.91S  
PINEVILLE PTSUNNY 82 64 54 MISG 29.99R  
BLUEFIELD LGT RAIN 75 58 55 S8G18 30.01F  
LEWISBURG PTSUNNY 70 65 83 N5 30.00F  

 
 
WVZ047-192300-  
NORTHERN MOUNTAINS OF WEST VIRGINIA  
 
CITY SKY/WX TMP DP RH WIND PRES REMARKS
 
ELKINS FAIR 78 62 57 S6 29.94F  

 
 
WVZ052-192300-  
EASTERN PANHANDLE OF WEST VIRGINIA  
 
CITY SKY/WX TMP DP RH WIND PRES REMARKS
 
MARTINSBURG FAIR 86 64 47 S12G22 29.83F  
PETERSBURG FAIR 70 63 77 E6 29.90F  

 
 
SOUTHEAST OHIO/NORTHEAST KENTUCKY  
 
CITY SKY/WX TMP DP RH WIND PRES REMARKS
 
ATHENS FAIR 83 59 43 SW8G24 29.83F  
ASHLAND FAIR 84 61 45 SW13G18 29.84F  

 
 
 
CLICK HERE TO GO TO PREVIOUS BULLETINS.

The Nexlab WV Page
The Nexlab OH Page
The Nexlab KY Page
The Nexlab VA Page Main Text Page